Bangor, ME

10:06 AM EDT on September 19, 2017 (GMT -0400)
Bangor International

Weather History for KBGR - February, 2012

Change the Weather History Date:

Monday, February 27, 2012

  Actual Average Record
Temperature  
Mean Temperature 19 °F 24 °F  
Max Temperature 27 °F 35 °F 54 °F (1976)
Min Temperature 10 °F 14 °F -17 °F (1963)
Degree Days  
Heating Degree Days 46 41  
Month to date heating degree days 1039 1198  
Since 1 July heating degree days 4748 5605  
Cooling Degree Days 0 0  
Month to date cooling degree days 0 0  
Year to date cooling degree days 0 0  
Moisture  
Dew Point 13 °F    
Average Humidity 67    
Maximum Humidity 88    
Minimum Humidity 46    
Precipitation  
Precipitation 0.04 in 0.10 in 0.84 in (2002)
Month to date precipitation 1.55 2.42  
Year to date precipitation 3.50 5.31  
Snow  
Snow 0.90 in 0.50 in 7.00 in (1934)
Month to date snowfall 7.0 14.2  
Since 1 July snowfall 41.3 50.2  
Snow Depth 4.00 in    
Sea Level Pressure  
Sea Level Pressure 30.27 in    
Wind  
Wind Speed 5 mph (East)    
Max Wind Speed 13 mph    
Max Gust Speed 16 mph    
Visibility 6 miles    
Events Fog , Snow    
T = Trace of Precipitation, MM = Missing Value Source: NWS Daily Summary

Daily Weather History Graph

Daily Weather History Graph

Search for Another Location

Airport or City:

Trip Planner

Search our weather history database for the weather conditions in past years. The results will help you decide how hot, cold, wet, or windy it might be!

Date:

Astronomy

Feb. 27, 2012 Rise Set
Actual Time 6:17 AM EST 5:19 PM EST
Civil Twilight 5:47 AM EST 5:49 PM EST
Nautical Twilight 5:14 AM EST 6:22 PM EST
Astronomical Twilight 4:40 AM EST 6:56 PM EST
Moon 8:27 AM EST (2/27) 11:28 PM EST (2/27)
Length of Visible Light 12h 01m
Length of Day
11h 02m
Waxing Crescent, 29% of the Moon is Illuminated
Feb 27
Waxing Crescent
Feb 29
First Quarter
Mar 8
Full
Mar 14
Last Quarter
Mar 22
New

Hourly Weather History & Observations

Time (EST) Temp. Windchill Dew Point Humidity Pressure Visibility Wind Dir Wind Speed Gust Speed Precip Events Conditions
12:53 AM 17.1 °F 11.7 °F 3.9 °F 56% 30.42 in 10.0 mi West 3.5 mph - N/A   Scattered Clouds
1:53 AM 17.1 °F 8.7 °F 3.0 °F 54% 30.44 in 10.0 mi WNW 5.8 mph - N/A   Partly Cloudy
2:53 AM 16.0 °F 6.3 °F 3.0 °F 57% 30.43 in 10.0 mi WNW 6.9 mph - N/A   Partly Cloudy
3:53 AM 15.1 °F 5.2 °F 3.9 °F 61% 30.45 in 10.0 mi NW 6.9 mph - N/A   Scattered Clouds
4:53 AM 12.9 °F - 3.0 °F 65% 30.46 in 10.0 mi Calm Calm - N/A   Partly Cloudy
5:53 AM 10.0 °F - 1.9 °F 70% 30.47 in 10.0 mi Calm Calm - N/A   Scattered Clouds
6:53 AM 12.0 °F - 5.0 °F 73% 30.47 in 10.0 mi Calm Calm - N/A   Mostly Cloudy
7:53 AM 16.0 °F - 3.9 °F 59% 30.47 in 10.0 mi Calm Calm - N/A   Overcast
8:53 AM 18.0 °F - 3.0 °F 52% 30.46 in 10.0 mi Calm Calm - N/A   Mostly Cloudy
9:53 AM 19.0 °F 13.9 °F 3.9 °F 52% 30.45 in 10.0 mi SSE 3.5 mph - N/A   Overcast
10:53 AM 21.9 °F 17.2 °F 5.0 °F 48% 30.41 in 10.0 mi South 3.5 mph - N/A   Overcast
11:53 AM 24.1 °F 18.2 °F 6.1 °F 46% 30.38 in 10.0 mi Variable 4.6 mph - N/A   Overcast
12:53 PM 26.1 °F 16.8 °F 8.1 °F 47% 30.33 in 10.0 mi SSE 9.2 mph - N/A   Overcast
1:53 PM 26.1 °F 16.2 °F 10.0 °F 51% 30.29 in 10.0 mi South 10.4 mph - N/A   Overcast
2:53 PM 27.0 °F 18.7 °F 12.9 °F 56% 30.26 in 10.0 mi South 8.1 mph - N/A   Overcast
3:53 PM 25.0 °F 13.6 °F 17.1 °F 72% 30.23 in 1.0 mi SSE 12.7 mph - 0.00 in Snow Light Snow
3:55 PM 24.8 °F 14.0 °F 17.6 °F 74% 30.22 in 1.0 mi SSE 11.5 mph - 0.00 in Snow Light Snow
3:59 PM 24.8 °F 14.6 °F 17.6 °F 74% 30.22 in 0.5 mi SSE 10.4 mph - 0.00 in Snow Snow
4:39 PM 24.8 °F 17.9 °F 21.2 °F 86% 30.20 in 1.5 mi ESE 5.8 mph - 0.00 in Snow Light Snow
4:53 PM 25.0 °F 18.1 °F 21.0 °F 85% 30.21 in 1.8 mi ESE 5.8 mph - 0.00 in Snow Light Snow
5:23 PM 24.8 °F 16.9 °F 21.2 °F 86% 30.18 in 2.0 mi East 6.9 mph - 0.00 in   Overcast
5:53 PM 25.0 °F 17.1 °F 21.0 °F 85% 30.18 in 2.0 mi ENE 6.9 mph - 0.00 in Snow Light Snow
6:07 PM 24.8 °F 16.9 °F 21.2 °F 86% 30.15 in 1.0 mi ENE 6.9 mph - 0.00 in Snow Light Snow
6:31 PM 24.8 °F 16.9 °F 21.2 °F 86% 30.13 in 0.2 mi ENE 6.9 mph - 0.00 in Fog , Snow Snow
6:53 PM 25.0 °F 18.1 °F 21.9 °F 88% 30.14 in 0.8 mi NE 5.8 mph - 0.01 in Snow Light Snow
7:43 PM 24.8 °F 16.9 °F 21.2 °F 86% 30.09 in 1.0 mi NE 6.9 mph - 0.02 in Snow Light Snow
7:53 PM 25.0 °F 16.3 °F 21.9 °F 88% 30.10 in 1.0 mi NE 8.1 mph - 0.02 in Snow Light Snow
8:53 PM 24.1 °F 17.0 °F 21.9 °F 91% 30.07 in 3.0 mi North 5.8 mph - 0.01 in Snow Light Snow
9:53 PM 24.1 °F 15.2 °F 21.0 °F 88% 30.05 in 10.0 mi NNW 8.1 mph - 0.00 in   Overcast
10:53 PM 24.1 °F 17.0 °F 19.9 °F 84% 30.01 in 10.0 mi North 5.8 mph - N/A   Overcast
11:53 PM 23.0 °F 13.9 °F 19.9 °F 88% 30.01 in 10.0 mi NNW 8.1 mph - N/A   Overcast